sat.trackr.live / text

‹ back to catalog

STARLINK-5695

NORAD 55485 · 2023-015AN

PAYLOAD ACTIVE UNKNOWN

§ Identity

Operator
Country
US
Launch date
2023-02-02
Launch site
AFETR
Launch vehicle
Mass (kg)
RCS (m²)

Purposes: comms

External: N2YO · Heavens-Above · Gunter

§ Orbital elements

Epoch: 2026-05-24T17:47:18.402144Z

Period
94.27 min
Inclination
43.0050°
Eccentricity
0.0002071
Mean motion
15.27576897 rev/d
Perigee alt
481.6 km
Apogee alt
484.5 km
Semi-major
6,861.2 km
B*
1.9390e-5
RAAN
270.4664°
Arg perigee
274.2079°
Mean anomaly
85.8536°
Rev number
18,222

§ Raw data

STARLINK-56951 55485U 23015AN  26144.74118521  .00000271  00000+0  19390-4 0  99992 55485  43.0050 270.4664 0002071 274.2079  85.8536 15.27576897182228

JSON: /api/v1/satellites/55485 · /tle

For live sub-satellite position, see the globe view (requires WebGL).

§ Visibility from observer

Set your observer location to see the next 7 days of passes ≥ 10°. The values pass through the URL so the page stays shareable.

No JS? Fill the form by hand. The geolocation button needs JavaScript.